[[{"header":{"parameterUnit":"m.s-1","parameterCategory":1,"la1":30.2991,"la2":30.254,"lo1":-89.0895,"lo2":-89.0444,"dy":0.0017,"dx":0.0017,"nx":28,"ny":28,"refTime":"2025-12-20T03:00:00:Z","depth":0,"parameterNumber":2,"parameterNumberName":"U-component_of_WINDS"},"data":[0,0,0,0,0,0,0,0,0,0,0,0,0,0,0,0,0,0,0,0,0,0,0,0,0,0,0,0,0,0,0,0,0,0,0,0,0,0,0,0,0,0,0,0,0,0,0,0,0,0,0,0,0,0,0,0,0,0,-3.4893,-3.4894,0,-3.4967,-3.4968,-3.4969,-3.4912,-3.491,-3.4907,-3.4905,-3.4979,-3.4983,-3.4987,0,0,0,0,0,0,0,0,0,0,0,0,0,-3.4701,-3.4705,-3.4893,-3.4894,-3.4895,-3.4967,-3.4968,-3.4969,-3.4912,-3.491,-3.4907,-3.4904,-3.4977,-3.4982,-3.4987,0,0,0,0,0,0,0,0,0,0,0,0,0,-3.4781,-3.4706,-3.4893,-3.4875,-3.4875,-3.4967,-3.4968,-3.497,-3.4913,-3.4909,-3.4906,-3.4902,-3.4976,-3.4982,-3.4988,-3.5101,0,0,-3.5008,-3.501,0,0,0,0,0,0,0,0,-3.4776,-3.4788,-3.4877,-3.4877,-3.4876,-3.4927,-3.4928,-3.5014,-3.4914,-3.4898,-3.4905,-3.4901,-3.4964,-3.4971,-3.4993,-3.5105,-3.5108,-3.5008,-3.5012,-3.5015,-3.5017,0,0,0,0,0,0,0,-3.4771,-3.4784,-3.4922,-3.4878,-3.4878,-3.4864,-3.4871,-3.4944,-3.4951,-3.4899,-3.4896,-3.4905,-3.4963,-3.4987,-3.4995,-3.5109,-3.5008,-3.5014,-3.5018,-3.502,-3.5317,-3.5321,0,0,0,0,0,0,-3.4767,-3.478,-3.492,-3.4925,-3.4816,-3.487,-3.4878,-3.4914,-3.495,-3.4952,-3.4908,-3.4902,-3.4978,-3.4987,-3.4997,-3.5131,-3.5015,-3.5021,-3.5024,-3.5313,-3.5318,-3.5323,0,0,0,0,0,0,-3.4763,-3.478,-3.4917,-3.4851,-3.4868,-3.4877,-3.4918,-3.4918,-3.4941,-3.4957,-3.4958,-3.4932,-3.4976,-3.4988,-3.5076,-3.5133,-3.5024,-3.5029,-3.5308,-3.5315,-3.532,-3.54,0,0,0,0,0,0,-3.4758,-3.4779,-3.4822,-3.4853,-3.4872,-3.4995,-3.4922,-3.4922,-3.4953,-3.4946,-3.4979,-3.4981,-3.4974,-3.5067,-3.5082,-3.5139,-3.5034,-3.5303,-3.5311,-3.5318,-3.5392,-3.5408,-3.5422,0,0,0,0,0,-3.4752,-3.4841,-3.4825,-3.4842,-3.4926,-3.4998,-3.5009,-3.5,-3.4958,-3.5001,-3.5011,-3.498,-3.5125,-3.5076,-3.5093,-3.5153,-3.53,-3.5309,-3.5318,-3.5386,-3.5405,-3.5421,0,0,0,0,0,0,-3.4816,-3.4845,-3.4827,-3.4929,-3.4962,-3.4989,-3.5042,-3.502,-3.5065,-3.5056,-3.5043,-3.5051,-3.5143,-3.5157,-3.5103,-3.5265,-3.5205,-3.5218,-3.5251,-3.527,-3.5284,-3.5277,-3.504,0,0,0,0,0,-3.4842,-3.4899,-3.4922,-3.501,-3.5027,-3.5033,-3.5064,-3.5054,-3.5087,-3.51,-3.5117,-3.515,-3.5203,-3.5237,-3.5287,-3.5396,-3.5401,-3.5445,-3.546,-3.5472,-3.5482,-3.554,-3.5559,-3.5353,-3.5352,-3.5352,0,0,-3.4896,-3.4919,-3.4956,-3.5023,-3.5047,-3.5106,-3.5044,-3.5109,-3.5152,-3.511,-3.5193,-3.5208,-3.5243,-3.5342,-3.5386,-3.5357,-3.5541,-3.5484,-3.5493,-3.5497,-3.5551,-3.5571,-3.5588,-3.5359,-3.5358,-3.5357,0,0,-3.5024,-3.5049,-3.5124,-3.5151,-3.5189,-3.5192,-3.5211,-3.5242,-3.5249,-3.5334,-3.5303,-3.5355,-3.5447,-3.5473,-3.5499,-3.5641,-3.5613,-3.5658,-3.5732,-3.5789,-3.5805,-3.582,-3.5868,-3.5886,-3.5669,-3.5669,-3.5669,0,-3.5086,-3.5174,-3.5166,-3.5233,-3.5263,-3.523,-3.5306,-3.5332,-3.5384,-3.5406,-3.5373,-3.5488,-3.551,-3.5614,-3.5649,-3.5672,-3.5691,-3.5652,-3.5804,-3.5818,-3.5831,-3.5878,-3.5896,-3.5674,-3.5673,-3.5673,-3.5672,0,-3.5248,-3.531,-3.5366,-3.5418,-3.5456,-3.5527,-3.553,-3.5569,-3.5557,-3.5564,-3.5651,-3.5677,-3.573,-3.5756,-3.5744,-3.5858,-3.5839,-3.5806,-3.5745,-3.5856,-3.5899,-3.5917,-3.5681,-3.5679,-3.5678,-3.5676,0,0,-3.5414,-3.5463,-3.5484,-3.5507,-3.5548,-3.5595,-3.5667,-3.5721,-3.5753,-3.5792,-3.585,-3.593,-3.59,-3.5929,-3.5921,-3.5972,-3.6081,-3.5932,-3.5933,-3.5956,-3.6206,-3.6228,-3.6249,-3.6065,-3.6068,-3.6071,-3.6202,0,-3.5542,-3.5665,-3.5661,-3.5775,-3.5832,-3.5803,-3.5865,-3.5897,-3.5906,-3.5956,-3.5966,-3.6022,-3.5979,-3.5997,-3.6045,-3.6057,-3.613,-3.6048,-3.6116,-3.6119,-3.6105,-3.6272,-3.6295,-3.6418,-3.622,-3.6222,-3.6225,0,-3.5707,-3.5752,-3.5872,-3.5906,-3.5929,-3.5985,-3.6034,-3.6083,-3.6119,-3.6122,-3.6157,-3.6141,-3.6213,-3.6154,-3.6252,-3.6196,-3.6225,-3.6236,-3.624,-3.6243,-3.6176,-3.6276,-3.6457,-3.6474,-3.6251,-3.6249,-3.6247,0,-3.5813,-3.5904,-3.5987,-3.6009,-3.6051,-3.609,-3.6109,-3.6142,-3.6175,-3.622,-3.6241,-3.6293,-3.632,-3.6361,-3.636,-3.6318,-3.6459,-3.64,-3.6462,-3.6462,-3.649,-3.6487,-3.6674,-3.6515,-3.6514,-3.6514,-3.6514,0,-3.5954,-3.6028,-3.6035,-3.6086,-3.6169,-3.6165,-3.6246,-3.6262,-3.6292,-3.6345,-3.6325,-3.6375,-3.6373,-3.6424,-3.6425,-3.6505,-3.6519,-3.6522,-3.6521,-3.6522,-3.6521,-3.6537,-3.6527,-3.6519,-3.6518,-3.6517,-3.6516,0,-3.6084,-3.6092,-3.6181,-3.6215,-3.6225,-3.6284,-3.6313,-3.6361,-3.6371,-3.6438,-3.6454,-3.6468,-3.6528,-3.6533,-3.6602,-3.6602,-3.6699,-3.669,-3.6686,-3.6683,-3.6744,-3.6737,-3.6945,-3.6971,-3.6798,-3.6799,-3.6801,0,-3.6171,-3.6227,-3.6268,-3.6303,-3.6325,-3.6381,-3.6415,-3.6415,-3.6451,-3.6498,-3.6541,-3.6599,-3.6645,-3.6742,-3.6758,-3.6811,-3.68,-3.687,-3.6808,-3.6807,-3.6798,-3.6793,-3.6798,-3.688,-3.6882,-3.6884,-3.6885,0,-3.6325,-3.6327,-3.6377,-3.643,-3.6472,-3.6513,-3.6551,-3.6581,-3.6585,-3.6627,-3.6689,-3.6725,-3.6796,-3.6853,-3.6906,-3.6925,-3.6906,-3.6906,-3.6922,-3.6922,-3.6916,-3.6917,-3.6715,-3.69,-3.6898,-3.6897,-3.6896,-3.6896,-3.6434,-3.6482,-3.6519,-3.6576,-3.6606,-3.6643,-3.669,-3.6706,-3.6758,-3.6816,-3.6813,-3.688,-3.6917,-3.6985,-3.701,-3.7062,-3.7038,-3.7063,-3.7069,-3.7074,-3.7079,-3.6912,-3.7072,-3.7072,-3.7071,-3.7071,-3.7071,0,-3.6583,-3.6606,-3.6659,-3.6714,-3.676,-3.6741,-3.6783,-3.6821,-3.6881,-3.6918,-3.6964,-3.7035,-3.7091,-3.7113,-3.7169,-3.7206,-3.7199,-3.7221,-3.7215,-3.722,-3.7098,-3.7077,-3.7226,-3.7226,-3.7226,-3.7226,-3.7226,-3.7226,-3.6666,-3.6747,-3.6754,-3.685,-3.6873,-3.6939,-3.6965,-3.6999,-3.7028,-3.7108,-3.7155,-3.717,-3.72,-3.7258,-3.7309,-3.7314,-3.7334,-3.7359,-3.736,-3.7245,-3.7229,-3.7214,-3.7193,-3.7364,-3.7365,-3.7477,-3.7478,-3.7479]},{"header":{"parameterUnit":"m.s-1","parameterCategory":1,"la1":30.2991,"la2":30.254,"lo1":-89.0895,"lo2":-89.0444,"dy":0.0017,"dx":0.0017,"nx":28,"ny":28,"refTime":"2025-12-20T03:00:00:Z","depth":0,"parameterNumber":3,"parameterNumberName":"V-component_of_WINDS"},"data":[0,0,0,0,0,0,0,0,0,0,0,0,0,0,0,0,0,0,0,0,0,0,0,0,0,0,0,0,0,0,0,0,0,0,0,0,0,0,0,0,0,0,0,0,0,0,0,0,0,0,0,0,0,0,0,0,0,0,1.0206,1.0206,0,1.0202,1.0202,1.0202,1.0114,1.0112,1.011,1.0108,1.0104,1.0105,1.0107,0,0,0,0,0,0,0,0,0,0,0,0,0,1.0141,1.0143,1.0206,1.0206,1.0206,1.0202,1.0202,1.0202,1.0115,1.0112,1.0109,1.0107,1.0103,1.0105,1.0108,0,0,0,0,0,0,0,0,0,0,0,0,0,1.0157,1.0143,1.0206,1.0162,1.0158,1.0202,1.0202,1.0202,1.0115,1.0112,1.0109,1.0106,1.0102,1.0105,1.0108,1.0193,0,0,1.0117,1.0118,0,0,0,0,0,0,0,0,1.0156,1.0159,1.0169,1.0165,1.0161,1.0155,1.0177,1.0199,1.0116,1.0132,1.0108,1.0104,1.0123,1.0124,1.0131,1.0193,1.0193,1.0117,1.0119,1.012,1.0121,0,0,0,0,0,0,0,1.0155,1.0159,1.0204,1.0169,1.0164,1.0143,1.0142,1.0181,1.0146,1.013,1.0124,1.0124,1.0121,1.0128,1.013,1.0193,1.0117,1.012,1.0122,1.0123,1.0329,1.0333,0,0,0,0,0,0,1.016,1.0158,1.0205,1.0204,1.015,1.0147,1.0146,1.0161,1.0146,1.014,1.0127,1.012,1.0125,1.0127,1.013,1.0232,1.012,1.0123,1.0125,1.0326,1.033,1.0334,0,0,0,0,0,0,1.0159,1.0165,1.0205,1.018,1.0183,1.0152,1.017,1.0162,1.017,1.0144,1.0137,1.0141,1.0122,1.0126,1.0179,1.023,1.0124,1.0127,1.0321,1.0327,1.0332,1.0435,0,0,0,0,0,0,1.0157,1.0165,1.0196,1.0181,1.0185,1.0254,1.0173,1.0165,1.0175,1.0166,1.0155,1.015,1.012,1.0175,1.0182,1.0232,1.0129,1.0317,1.0324,1.033,1.0427,1.0443,1.0457,0,0,0,0,0,1.0155,1.0224,1.0198,1.0204,1.0223,1.0257,1.0259,1.0223,1.0179,1.0212,1.0196,1.0151,1.0224,1.0181,1.0188,1.024,1.0313,1.0322,1.033,1.042,1.044,1.0457,0,0,0,0,0,0,1.0245,1.0221,1.0192,1.0258,1.0261,1.0242,1.0281,1.0245,1.0259,1.025,1.0204,1.0203,1.0264,1.0257,1.0211,1.0324,1.0261,1.0271,1.0327,1.0346,1.0361,1.0361,1.0132,0,0,0,0,0,1.0273,1.0301,1.0279,1.034,1.0343,1.0312,1.0325,1.0298,1.0298,1.0298,1.0285,1.0288,1.0312,1.0328,1.0348,1.0425,1.0423,1.0465,1.048,1.0493,1.0502,1.0546,1.0565,1.0362,1.0362,1.0361,0,0,1.033,1.032,1.0341,1.0358,1.0356,1.0388,1.0313,1.0349,1.0373,1.0303,1.0354,1.0346,1.0345,1.0412,1.0441,1.0408,1.0558,1.0503,1.0514,1.0516,1.0557,1.0576,1.0593,1.0367,1.0366,1.0365,0,0,1.045,1.0445,1.0497,1.0498,1.0497,1.0477,1.049,1.0478,1.047,1.052,1.0469,1.0497,1.0538,1.0541,1.0548,1.0675,1.0635,1.0682,1.0762,1.0806,1.0822,1.0836,1.0883,1.0901,1.0692,1.0692,1.0692,0,1.0521,1.0567,1.0528,1.0569,1.0579,1.0519,1.0572,1.0574,1.058,1.0589,1.0553,1.0605,1.0601,1.0669,1.0701,1.0707,1.0722,1.0683,1.0822,1.0836,1.0849,1.0894,1.0912,1.0698,1.0697,1.0697,1.0696,0,1.0656,1.0689,1.0731,1.074,1.0755,1.0801,1.0771,1.079,1.0763,1.0747,1.0801,1.0794,1.0813,1.0827,1.0799,1.0893,1.0873,1.083,1.0765,1.0875,1.0917,1.0933,1.0707,1.0704,1.0703,1.0701,0,0,1.0831,1.0821,1.0837,1.0842,1.0838,1.0863,1.0909,1.0928,1.0948,1.0954,1.0993,1.1031,1.0992,1.1,1.0973,1.1011,1.1115,1.0964,1.0963,1.0994,1.1221,1.1255,1.1275,1.1089,1.1092,1.1094,1.1222,0,1.095,1.1027,1.0995,1.1075,1.1107,1.1052,1.1092,1.1095,1.1082,1.1108,1.1094,1.1123,1.1068,1.1074,1.1109,1.1095,1.1161,1.1085,1.1126,1.1128,1.1129,1.1296,1.1331,1.1452,1.1238,1.1241,1.1243,0,1.1098,1.1113,1.1197,1.1192,1.1204,1.124,1.1258,1.1282,1.1286,1.1274,1.1286,1.1251,1.1296,1.1232,1.1296,1.1246,1.126,1.1257,1.1261,1.1264,1.1193,1.1306,1.1489,1.1508,1.1267,1.1265,1.1264,0,1.122,1.1262,1.1318,1.1324,1.1318,1.1346,1.1345,1.1345,1.136,1.1375,1.1385,1.1406,1.1417,1.1435,1.1407,1.1362,1.1476,1.1408,1.1469,1.147,1.1496,1.1495,1.1686,1.1503,1.1503,1.1503,1.1502,0,1.1357,1.1411,1.1374,1.1409,1.1469,1.1432,1.1493,1.1486,1.1487,1.1521,1.1474,1.1507,1.1468,1.1498,1.1476,1.1534,1.1539,1.1532,1.1526,1.1538,1.1539,1.1547,1.1539,1.1507,1.1506,1.1505,1.1505,0,1.1503,1.148,1.1539,1.153,1.1529,1.1574,1.1567,1.16,1.1585,1.1629,1.1637,1.1614,1.1647,1.1621,1.1653,1.1639,1.1716,1.1697,1.1716,1.1711,1.1774,1.177,1.1979,1.2005,1.1804,1.1806,1.1808,0,1.1592,1.1633,1.163,1.165,1.1653,1.1684,1.1701,1.1667,1.1686,1.1696,1.1728,1.1757,1.1779,1.1834,1.1821,1.1846,1.1828,1.19,1.1832,1.1843,1.1832,1.1831,1.1836,1.1914,1.1917,1.1918,1.192,0,1.1754,1.1742,1.1767,1.179,1.1811,1.1827,1.1839,1.1858,1.1825,1.1849,1.1883,1.19,1.1934,1.1964,1.1985,1.1984,1.1948,1.1942,1.1958,1.197,1.198,1.1978,1.1755,1.1937,1.1935,1.1934,1.1933,1.1933,1.1876,1.1911,1.1916,1.1947,1.1953,1.1967,1.1998,1.1989,1.2017,1.2043,1.2021,1.2063,1.2068,1.2093,1.2098,1.213,1.2101,1.2123,1.2129,1.2136,1.2146,1.1974,1.2134,1.2133,1.2133,1.2132,1.2132,0,1.2037,1.2038,1.2067,1.2087,1.2113,1.2077,1.209,1.2113,1.2151,1.2159,1.2183,1.2223,1.2254,1.2244,1.2272,1.23,1.2284,1.2308,1.2307,1.2308,1.2169,1.2154,1.2321,1.2321,1.2321,1.2321,1.2321,1.2321,1.2124,1.2183,1.2173,1.2235,1.2236,1.2277,1.2288,1.2301,1.2308,1.2356,1.2382,1.2376,1.2378,1.2406,1.2433,1.243,1.2443,1.2474,1.2465,1.2336,1.2317,1.2299,1.2285,1.2477,1.2477,1.2601,1.2602,1.2603]}]]